Location: *
(43.0833°N, 13.0500°E)
Time: 04:36:40
(UTC+00:00)

Cosmos 1825 - Pass Details

Date: 15 November 2019
Orbit: 504 x 508 km, 82.5° (Epoch: 07 December)

Event Time Altitude Azimuth Distance (km) Brightness Sun altitude
Rises 16:18:53 0° 346° (NNW) 2,619 5.7 -6.7°
Reaches altitude 10° 16:21:03 10° 340° (NNW) 1,729 4.9 -7.0°
Maximum altitude 16:24:42 47° 266° (W) 680 3.4 -7.7°
Drops below altitude 10° 16:28:19 10° 192° (SSW) 1,717 5.3 -8.3°
Sets 16:30:28 0° 187° (S) 2,597 6.1 -8.7°
